loading
|
Showing default

EXPLORER 29 (GEOS 1), 1726

Orbit data source: Space-Track

EXPLORER 29 (GEOS 1), 1726 is a payload satellite owned by GSFC (US) in LEO that was launched on Sat, 06 Nov 1965 UTC via a THOR DELTA E launch vehicle from the Air Force Eastern Test Range (AFETR). Payloads include a variety of satellites, spacecraft, and rockets equipped with specific instruments for various scientific and technological missions. These include communications satellites like Starlink; space stations such as the ISS; scientific satellites like the Hubble; Earth observation satellites from companies like Planet Labs, Umbra, and HawkEye 360; GPS; miniature CubeSats for education and research; and military/defense satellites.

Loading next visibility...
Next conjunction unknown
Loading greatness...
EXPLORER 29 (GEOS 1) details
Identifier
1726, 1965-089A
Orbit
LEO
Last TLE update11 hours ago
Origin
Flag of USGSFC (US)
ManufacturerAPL
MissionCivil Geodetic
Bus & MotorANNA, Unknown motor
Mass176 kg wet, 176 kg dry
Launch date (UTC)
1965-11-06 (59 years ago)
Launch vehicle
THOR DELTA E
Launch site
Air Force Eastern Test Range (AFETR)
Object type
Payload
Rocket body
Debris
Shape & HBROct Cyl + 1 Dome + 1 Rod, 15 m
Radar Cross Section1.519 m², Large (>1 m²)

Expand to show TLE details & history

TLE from 11 hours ago
0 EXPLORER 29 (GEOS 1)
1 01726U 65089A   24285.54354831 -.00000055  00000-0  12253-3 0  9995
2 01726  59.3831 328.4644 0715692 179.4506 334.4564 11.97071323576191
Epoch: 2024-10-11T13:02Z
Definitive object data (Epoch: 2024-10-11T13:02:42.573Z)
Latitude25.49137°
Longitude-84.12799°
Altitude1,182.781 km
Speed7.492 km/s
True Right ascension08h 48m 38s
True Declination25° 21' 56"
Sunlit
Object was in daylight at TLE epoch
Predictive object data (real-time)
Latitude-10.81114°
Longitude104.67614°
Altitude2,260.087 km
Speed6.553 km/s
Apparent Right ascension23h 40m 55s
Apparent Declination-43° 46' 46"
Sunlit
Object is in daylight
Predictive observer data (real-time)
Local Sidereal Time18:31:58
Azimuth131.953° SE
Elevation-18.762°
Doppler factor1
Orbital elements
Apogee2,271.067 km
Perigee1,115.721 km
Semi-major axis8,071.531 km
Eccentricity0.0715692
Inclination59.3831°
RAAN328.4644°
Arg. of periapsis179.4506°
True anomaly330.61366°
Mean anomaly334.4564°
Eccentric anomaly332.56722°
Mean motion2.99302 °/min
BSTAR0.00012253
Period120.28 mins
No data available

EXPLORER 29 (GEOS 1) Visibility forecast

Observer location: 39.9160978°, -105.1181434

Span
Click to sort rows by Start time (UTC) header in descending order
Start Az.
Max El. time (UTC)
Max El. Az.
Max El.
End time (UTC)
End Az.
10 mins2024-10-12 02:20:10.493Z130.294° SE2024-10-12 02:25:10.493Z106.803° ESE13.501°2024-10-12 02:30:10.493Z81.619° E
22 mins2024-10-12 04:18:10.493Z194.602° SSW2024-10-12 04:29:10.493Z128.626° SE40.756°2024-10-12 04:40:10.493Z46.409° ENE
20 mins2024-10-12 06:25:10.493Z248.336° W2024-10-12 06:35:10.493Z313.787° NW38.543°2024-10-12 06:45:10.493Z35.078° NE
15 mins2024-10-12 08:36:10.493Z298.424° NW2024-10-12 08:44:10.493Z350.091° N23.725°2024-10-12 08:51:10.493Z40.093° NE
13 mins2024-10-12 10:46:10.493Z327.694° NNW2024-10-12 10:53:10.493Z21.706° NNE24.969°2024-10-12 10:59:10.493Z72.758° E
14 mins2024-10-12 12:52:10.493Z322.753° NNW2024-10-12 13:00:10.493Z68.586° E43.575°2024-10-12 13:06:10.493Z130.724° SE
9 mins2024-10-12 14:59:10.493Z290.364° WNW2024-10-12 15:04:10.493Z244.661° WSW20.902°2024-10-12 15:08:10.493Z206.593° SW